N805AB -KSAN

Flight info

Callsign N805AB
Flight time N/A
Altitude
Route PATTERN
Aircraft C160/M-DOV/C

Departure

Time N/A
Airport -

Arrival

Time 2026-04-23 01:54
Airport San Diego International Airport (KSAN)
Time Latitude Longitude Altitude Speed Heading
2026-04-23 01:53 32.73416 -117.17886 24 ft 0 kts 18°
2026-04-23 01:57 32.73419 -117.17887 28 ft 1 kts
2026-04-23 01:57 32.73425 -117.17897 27 ft 2 kts 283°
2026-04-23 01:58 32.73420 -117.17917 26 ft 2 kts 220°
2026-04-23 01:58 32.73391 -117.17927 25 ft 9 kts 196°
2026-04-23 01:58 32.73301 -117.17959 25 ft 13 kts 197°
2026-04-23 01:58 32.73244 -117.17962 22 ft 8 kts 142°
2026-04-23 01:59 32.73192 -117.17814 21 ft 24 kts 106°
2026-04-23 01:59 32.73162 -117.17687 21 ft 13 kts 106°
2026-04-23 01:59 32.73118 -117.17562 20 ft 15 kts 137°
2026-04-23 01:59 32.73105 -117.17551 20 ft 0 kts 150°
2026-04-23 02:04 32.73051 -117.17531 21 ft 20 kts 180°
2026-04-23 02:04 32.73014 -117.17570 22 ft 2 kts 281°
2026-04-23 02:04 32.73019 -117.17594 20 ft 3 kts 284°
2026-04-23 02:04 32.73020 -117.17600 22 ft 2 kts 284°
2026-04-23 02:05 32.73052 -117.17731 19 ft 46 kts 287°
2026-04-23 02:05 32.73205 -117.18355 25 ft 108 kts 286°
2026-04-23 02:05 32.73453 -117.19375 96 ft 148 kts 287°
2026-04-23 02:05 32.73822 -117.20658 352 ft 175 kts 302°
2026-04-23 02:06 32.74899 -117.21290 766 ft 188 kts 360°
2026-04-23 02:06 32.75984 -117.20567 1061 ft 184 kts 53°
2026-04-23 02:06 32.76196 -117.19066 1104 ft 189 kts 92°
2026-04-23 02:06 32.75880 -117.17598 1185 ft 185 kts 106°
2026-04-23 02:07 32.75469 -117.16142 1252 ft 181 kts 108°
2026-04-23 02:07 32.75042 -117.14756 1606 ft 182 kts 109°
2026-04-23 02:07 32.74578 -117.13321 1898 ft 195 kts 110°
2026-04-23 02:07 32.74048 -117.11751 2055 ft 213 kts 111°
2026-04-23 02:08 32.73467 -117.10084 2124 ft 226 kts 111°
2026-04-23 02:08 32.72680 -117.08472 2168 ft 218 kts 132°
2026-04-23 02:08 32.71516 -117.07477 2037 ft 200 kts 140°
2026-04-23 02:08 32.70505 -117.06451 1974 ft 177 kts 147°
2026-04-23 02:09 32.69302 -117.06216 1958 ft 182 kts 198°
2026-04-23 02:09 32.68398 -117.07093 1784 ft 162 kts 256°
2026-04-23 02:09 32.68660 -117.08264 1661 ft 157 kts 309°
2026-04-23 02:09 32.69407 -117.09293 1539 ft 179 kts 310°
2026-04-23 02:10 32.70301 -117.10483 1447 ft 203 kts 311°
2026-04-23 02:10 32.71196 -117.11685 1377 ft 173 kts 311°
2026-04-23 02:10 32.71749 -117.12751 1217 ft 137 kts 297°
2026-04-23 02:10 32.72072 -117.13750 983 ft 129 kts 291°
2026-04-23 02:11 32.72333 -117.14782 740 ft 131 kts 288°
2026-04-23 02:11 32.72582 -117.15787 508 ft 119 kts 289°
2026-04-23 02:11 32.72799 -117.16706 310 ft 114 kts 287°
2026-04-23 02:11 32.73023 -117.17604 118 ft 112 kts 289°
2026-04-23 02:12 32.73216 -117.18398 25 ft 87 kts 287°
2026-04-23 02:12 32.73402 -117.19155 29 ft 118 kts 285°
2026-04-23 02:12 32.73662 -117.20172 275 ft 139 kts 288°
2026-04-23 02:12 32.74212 -117.21257 814 ft 160 kts 322°
2026-04-23 02:13 32.75338 -117.21610 1437 ft 185 kts 359°
2026-04-23 02:13 32.76503 -117.20868 1966 ft 212 kts 49°
2026-04-23 02:13 32.76961 -117.19129 2415 ft 237 kts 86°
2026-04-23 02:13 32.76828 -117.17092 2532 ft 262 kts 94°
2026-04-23 02:14 32.76615 -117.14867 2544 ft 276 kts 95°
2026-04-23 02:14 32.76370 -117.12588 2555 ft 278 kts 96°
2026-04-23 02:14 32.76086 -117.10316 2554 ft 278 kts 97°
2026-04-23 02:14 32.75575 -117.08170 2799 ft 260 kts 121°
2026-04-23 02:15 32.72578 -117.07104 2773 ft 225 kts 201°
2026-04-23 02:15 32.71528 -117.08138 2491 ft 178 kts 257°
2026-04-23 02:15 32.71281 -117.09506 2019 ft 164 kts 264°
2026-04-23 02:16 32.71260 -117.10732 1781 ft 136 kts 285°
2026-04-23 02:16 32.71551 -117.11757 1497 ft 125 kts 294°
2026-04-23 02:16 32.71847 -117.12709 1222 ft 123 kts 290°
2026-04-23 02:16 32.72067 -117.13691 1011 ft 126 kts 288°
2026-04-23 02:17 32.72301 -117.14683 800 ft 122 kts 288°
2026-04-23 02:17 32.72532 -117.15622 625 ft 114 kts 289°
2026-04-23 02:17 32.72746 -117.16503 395 ft 109 kts 289°
2026-04-23 02:17 32.72955 -117.17347 174 ft 102 kts 290°
2026-04-23 02:18 32.73141 -117.18098 38 ft 88 kts 289°
2026-04-23 02:18 32.73303 -117.18753 22 ft 96 kts 286°
2026-04-23 02:18 32.73530 -117.19696 136 ft 133 kts 287°
2026-04-23 02:18 32.73826 -117.20917 427 ft 170 kts 287°
2026-04-23 02:19 32.74292 -117.22235 1213 ft 177 kts 307°
2026-04-23 02:19 32.75425 -117.22788 1787 ft 200 kts
2026-04-23 02:19 32.76685 -117.21905 2160 ft 232 kts 51°
2026-04-23 02:19 32.77174 -117.20008 2287 ft 249 kts 85°
2026-04-23 02:20 32.76906 -117.18058 2317 ft 221 kts 103°
2026-04-23 02:20 32.76495 -117.16423 2131 ft 194 kts 105°
2026-04-23 02:20 32.75726 -117.15289 1939 ft 175 kts 170°
2026-04-23 02:20 32.74731 -117.15812 1904 ft 166 kts 252°
2026-04-23 02:21 32.74979 -117.17027 2039 ft 164 kts 320°
2026-04-23 02:21 32.76123 -117.17253 1995 ft 185 kts 16°
2026-04-23 02:21 32.77035 -117.16113 1912 ft 210 kts 71°
2026-04-23 02:21 32.76788 -117.14417 1922 ft 219 kts 125°
2026-04-23 02:22 32.75507 -117.13587 2013 ft 212 kts 186°
2026-04-23 02:22 32.74426 -117.14529 1991 ft 199 kts 258°
2026-04-23 02:22 32.74784 -117.15953 2159 ft 192 kts 323°
2026-04-23 02:22 32.76090 -117.15981 2171 ft 211 kts 27°
2026-04-23 02:23 32.76822 -117.14417 2148 ft 231 kts 83°
2026-04-23 02:23 32.76719 -117.12518 2183 ft 237 kts 95°
2026-04-23 02:23 32.76512 -117.10559 2190 ft 239 kts 95°
2026-04-23 02:23 32.76255 -117.08608 2219 ft 239 kts 100°
2026-04-23 02:24 32.75859 -117.06694 2297 ft 238 kts 103°
2026-04-23 02:24 32.75442 -117.04807 2462 ft 233 kts 103°
2026-04-23 02:24 32.74945 -117.02972 2528 ft 235 kts 115°
2026-04-23 02:24 32.73749 -117.01700 2637 ft 237 kts 161°
2026-04-23 02:25 32.72129 -117.01559 2733 ft 236 kts 190°
2026-04-23 02:25 32.70554 -117.02049 2789 ft 234 kts 214°
2026-04-23 02:25 32.69657 -117.03534 2857 ft 227 kts 265°
2026-04-23 02:25 32.69923 -117.05406 2505 ft 239 kts 287°
2026-04-23 02:26 32.70422 -117.07291 2090 ft 236 kts 290°
2026-04-23 02:26 32.70964 -117.09105 1759 ft 230 kts 290°
2026-04-23 02:26 32.71409 -117.10875 1450 ft 204 kts 287°
2026-04-23 02:26 32.71677 -117.12128 1168 ft 129 kts 287°
2026-04-23 02:27 32.71927 -117.13164 947 ft 130 kts 289°
2026-04-23 02:27 32.72186 -117.14187 783 ft 129 kts 288°
2026-04-23 02:27 32.72439 -117.15223 579 ft 131 kts 289°
2026-04-23 02:27 32.72690 -117.16235 395 ft 124 kts 288°
2026-04-23 02:28 32.72922 -117.17195 168 ft 114 kts 288°
2026-04-23 02:28 32.73121 -117.18012 34 ft 93 kts 289°
2026-04-23 02:28 32.73299 -117.18731 22 ft 106 kts 286°
2026-04-23 02:28 32.73534 -117.19704 127 ft 139 kts 287°
2026-04-23 02:29 32.73869 -117.20994 380 ft 176 kts 294°
2026-04-23 02:29 32.74845 -117.21806 983 ft 188 kts 355°
2026-04-23 02:29 32.76175 -117.21406 1357 ft 209 kts 28°
2026-04-23 02:29 32.76889 -117.19966 2041 ft 220 kts 82°
2026-04-23 02:30 32.76616 -117.18093 2279 ft 242 kts 103°
2026-04-23 02:30 32.76147 -117.16074 2264 ft 263 kts 104°
2026-04-23 02:30 32.75615 -117.13948 2338 ft 272 kts 105°
2026-04-23 02:30 32.75051 -117.11782 2409 ft 275 kts 107°
2026-04-23 02:31 32.74465 -117.09634 2641 ft 272 kts 106°
2026-04-23 02:31 32.73880 -117.07504 2865 ft 272 kts 108°
2026-04-23 02:31 32.73195 -117.05416 2962 ft 266 kts 117°
2026-04-23 02:31 32.71962 -117.03932 3263 ft 251 kts 153°
2026-04-23 02:32 32.70300 -117.03548 3260 ft 234 kts 186°
2026-04-23 02:32 32.68994 -117.04112 3230 ft 172 kts 263°
2026-04-23 02:32 32.69219 -117.05343 2916 ft 158 kts 292°
2026-04-23 02:32 32.69644 -117.06492 2639 ft 138 kts 299°
2026-04-23 02:33 32.70172 -117.07377 2505 ft 128 kts 309°
2026-04-23 02:33 32.70678 -117.08239 2307 ft 124 kts 301°
2026-04-23 02:33 32.70996 -117.09168 2110 ft 123 kts 290°
2026-04-23 02:33 32.71212 -117.10129 1945 ft 113 kts 287°
2026-04-23 02:34 32.71397 -117.10990 1791 ft 105 kts 287°
2026-04-23 02:34 32.71597 -117.11871 1652 ft 114 kts 288°
2026-04-23 02:34 32.71819 -117.12803 1414 ft 120 kts 289°
2026-04-23 02:34 32.72064 -117.13752 1203 ft 119 kts 289°
2026-04-23 02:35 32.72306 -117.14688 981 ft 117 kts 289°
2026-04-23 02:35 32.72529 -117.15607 752 ft 114 kts 289°
2026-04-23 02:35 32.72743 -117.16488 460 ft 108 kts 289°
2026-04-23 02:35 32.72947 -117.17302 179 ft 100 kts 289°
2026-04-23 02:36 32.73135 -117.18078 31 ft 95 kts 288°
2026-04-23 02:36 32.73284 -117.18681 22 ft 44 kts 286°
2026-04-23 02:36 32.73356 -117.18807 21 ft 9 kts 344°
2026-04-23 02:36 32.73412 -117.18798 20 ft 4 kts 18°
2026-04-23 02:37 32.73436 -117.18784 20 ft 3 kts 54°
2026-04-23 02:37 32.73422 -117.18703 20 ft 25 kts 106°
2026-04-23 02:37 32.73364 -117.18491 23 ft 29 kts 109°
2026-04-23 02:37 32.73298 -117.18248 23 ft 29 kts 107°
2026-04-23 02:38 32.73256 -117.18075 23 ft 18 kts 105°
2026-04-23 02:38 32.73295 -117.17971 22 ft 15 kts 19°
2026-04-23 02:38 32.73384 -117.17903 26 ft 15 kts 35°
2026-04-23 02:38 32.73405 -117.17894 26 ft 0 kts 13°